Powrót do katalogu

STARLINK-4414

AktywnyŁącznośćSSO
NORAD 53213·PAYLOAD·🇺🇸 United States

Wystrzelony Jul 22, 2022 z Vandenberg Space Force Base

Loading…

Następne Przeloty (najbliższe 24 godziny)

TLE

ŚwieżeSource: CelesTrak SupGP

Epoka: Sep 14, 2026, 22:01 UTC

1 53213C 22084AA  26257.91784722  .00004751  00000+0  14752-3 0  2577
2 53213  97.2839 312.8616 0001761  92.6124 150.1148 15.33426797    18

Śledź STARLINK-4414 w czasie rzeczywistym z AllMySat

Download on the App Store